Cloud_Cover
0 0 0 0 2 2 5 5 5 5 5 5 0 0 0 0 0 8 14 10 7 2 10 20 0 0 0 0 0 5 4 2 6 18 7 0 0 3 9 0 0 1 4 0 0 0 0 0 0
0 0 0 0 0 4 26 5 0 4 5 5 4 0 0 0 0 3 12 6 3 5 2 35 0 0 0 0 0 2 4 5 14 7 14 7 0 0 12 9 0 0 2 2 3 0 0 0 1
0 0 0 0 1 19 6 19 0 2 4 5 5 5 2 0 1 1 6 5 5 2 86 4 5 10 2 1 1 4 3 3 18 17 0 0 0 0 7 16 0 0 6 1 0 2 0 0 1
0 0 0 0 5 37 5 100 5 5 5 5 5 5 5 1 0 5 96 10 5 10 52 21 0 3 5 4 1 3 2 16 27 0 0 0 0 0 8 57 5 0 0 3 5 0 0 0 0
0 0 0 0 2 2 5 18 61 4 5 52 12 9 5 5 2 2 5 5 50 9 26 10 5 5 5 10 3 8 4 5 22 0 0 0 0 21 2 12 0 11 7 1 10 0 0 0 0
0 0 0 0 0 2 0 4 5 4 4 14 98 70 28 5 5 5 5 5 5 6 5 7 38 4 5 60 42 70 5 95 12 0 0 0 6 9 0 10 2 3 16 15 0 0 0 0 0
0 0 0 0 0 0 0 0 0 3 5 41 36 100 92 91 74 8 5 5 9 48 30 100 36 5 5 27 94 17 96 66 2 0 0 0 7 6 3 8 7 7 23 3 0 0 0 0 0
0 0 0 0 0 0 0 0 22 0 16 5 45 74 100 100 100 82 12 23 5 6 23 100 70 51 30 59 47 99 70 5 0 0 0 10 0 1 28 98 38 0 5 0 0 0 0 1 0
0 0 0 0 0 0 0 0 0 0 0 5 52 59 98 100 100 100 100 95 77 39 40 100 87 91 98 68 100 96 99 12 0 6 0 11 82 82 3 6 3 5 15 3 3 1 2 0 0
0 0 0 0 0 0 0 0 0 0 0 0 0 45 95 100 100 100 100 100 100 100 92 100 100 96 99 98 13 34 6 56 76 83 50 13 62 10 2 0 0 12 2 0 1 1 4 0 0
0 0 0 0 0 0 0 0 0 0 0 0 0 0 90 100 100 100 100 100 100 100 100 100 95 94 100 96 97 11 5 30 94 100 49 69 5 2 2 0 0 1 0 0 0 0 0 0 0
0 0 0 0 0 0 0 0 0 0 0 0 0 0 65 100 100 100 100 100 100 100 100 100 100 31 6 86 33 94 97 72 100 67 91 71 94 32 5 5 5 0 0 0 0 5 0 0 0
0 0 0 0 0 0 0 0 0 0 0 0 0 0 1 94 100 100 100 100 100 100 100 100 100 70 38 5 71 100 100 92 100 100 98 96 5 5 30 20 5 5 5 6 5 2 5 4 0
0 0 1 3 0 0 0 0 0 0 0 0 0 0 0 1 73 100 100 100 100 100 100 100 87 94 73 84 79 100 100 100 100 100 99 64 15 7 58 41 55 37 13 10 5 5 2 3 3
0 0 0 5 5 24 0 0 0 0 0 0 0 0 0 0 0 66 100 100 100 100 100 100 100 99 69 68 97 100 100 100 100 100 72 31 54 62 5 70 60 46 5 5 5 3 6 27 14
0 1 3 2 5 58 77 6 0 0 0 0 0 0 0 0 0 0 21 100 100 100 100 100 100 99 78 68 100 100 100 100 100 100 100 97 30 36 75 6 5 5 6 8 5 11 5 5 5
0 2 1 3 4 23 82 19 2 2 0 0 0 0 0 0 0 0 3 99 100 100 100 100 100 100 94 91 100 100 100 100 100 100 100 100 25 35 60 10 73 87 94 76 45 17 15 5 5
0 1 4 5 3 8 23 98 73 46 59 4 0 0 0 0 0 0 0 98 68 100 100 100 100 100 100 100 100 100 100 100 100 100 100 99 55 28 77 67 100 100 100 90 100 78 14 24 6
0 0 3 2 0 0 5 18 99 42 5 3 3 0 0 0 0 0 4 61 95 100 100 100 100 100 100 100 100 100 100 100 100 100 100 100 100 100 92 100 100 100 96 56 19 63 7 4 5
0 0 0 1 0 4 5 10 17 5 5 2 1 2 0 0 0 0 3 7 100 100 100 100 100 100 100 100 100 100 100 100 100 100 100 100 100 100 88 100 100 72 15 11 94 100 99 35 55
0 0 0 0 0 1 5 27 5 36 13 6 15 99 8 0 0 0 2 5 50 100 100 100 100 100 100 100 100 100 100 100 100 100 100 100 100 100 100 100 100 100 100 100 100 100 100 63 100
0 0 0 0 0 2 4 43 57 15 5 57 94 71 100 12 0 0 0 11 14 100 100 100 100 100 100 100 100 100 100 100 100 100 100 100 100 100 100 100 100 100 100 100 100 100 100 100 100
0 0 0 0 0 2 0 47 64 20 82 75 99 100 100 76 36 0 0 0 5 81 100 100 100 100 100 100 100 100 100 100 100 100 100 100 100 100 100 100 100 100 100 100 100 100 100 100 100
0 0 0 0 0 66 13 75 92 99 100 100 100 100 100 100 82 1 2 0 0 7 100 100 100 100 100 100 100 100 100 100 100 100 100 100 100 100 100 100 100 100 100 100 100 100 100 100 100
0 0 3 2 5 4 4 65 99 100 100 100 100 100 100 100 100 98 3 4 4 95 100 100 100 100 100 100 100 100 100 100 100 100 100 100 100 100 100 100 100 100 100 100 100 100 100 100 100
0 0 4 45 1 5 4 51 100 98 100 100 100 100 100 100 100 100 100 100 100 100 100 100 100 100 100 100 100 100 100 100 100 100 100 100 100 100 100 100 100 100 100 100 100 100 100 100 100
0 0 0 39 16 63 11 74 73 94 29 100 100 100 100 100 100 100 100 100 100 100 100 100 100 100 100 100 100 100 100 100 100 100 100 100 100 100 100 100 100 100 100 100 100 100 100 100 100
0 0 0 2 4 3 5 3 76 62 5 89 96 100 100 100 100 100 100 100 100 100 100 100 100 100 100 100 100 100 100 100 100 100 100 100 100 100 100 100 100 100 100 100 100 100 100 100 100
0 0 0 1 1 2 3 0 5 92 56 5 60 100 100 100 100 100 100 100 100 100 100 100 100 100 100 100 100 100 100 100 100 100 100 100 100 100 100 100 100 100 100 100 100 100 100 100 100
0 0 0 0 0 1 0 1 0 9 77 5 39 98 100 100 100 100 100 100 100 100 100 100 100 100 100 100 100 100 100 100 100 100 100 100 100 100 100 100 100 100 100 100 100 100 100 100 100